Voltar ao catálogo

FENGYUN 1C DEB

AtivoSSO
NORAD 37589·DEBRIS·🇨🇳 China

Lançado May 10, 1999 de Taiyuan Satellite Launch Center

Loading…

Próximas Passagens (próximas 24 horas)

TLE

ObsoletoSource: Space-Track

Época: Aug 30, 2026, 23:07 UTC

1 37589U 99025EKH 26242.96342787  .00002823  00000-0  15194-2 0  9996
2 37589  99.0681 152.5604 0112554 252.6063 106.2774 14.10479981862649

Acompanhe FENGYUN 1C DEB em tempo real com AllMySat

Download on the App Store